Temp
12 12 13 14 14 15 14 14 14 14 14 13 13 13 13 12 12 12 12 12 11 11 10 10 10 9 10 10 9 9 9 9 9 9 8 9 9 9 10 10 10 10 10
8 10 12 13 14 14 14 14 14 14 14 14 13 13 13 12 13 12 13 11 11 11 11 10 10 10 10 9 9 9 9 9 9 9 9 9 9 9 10 10 10 10 10
6 7 9 11 13 13 13 13 14 14 14 14 13 13 13 13 12 12 12 12 11 11 11 10 10 10 10 10 9 9 9 9 8 8 9 8 9 9 10 9 9 9 10
2 4 6 8 10 12 13 13 12 13 13 13 13 13 13 12 12 12 12 11 11 11 10 10 10 9 9 10 9 9 9 9 8 8 8 9 9 8 9 10 10 9 9
0 2 3 5 7 9 10 12 12 12 13 13 13 13 12 13 13 13 12 12 11 11 10 10 10 10 9 9 10 9 8 8 8 8 8 8 9 9 9 10 9 10 10
-1 1 1 2 3 5 8 10 10 10 11 12 13 12 12 12 12 12 12 12 11 11 11 10 10 10 9 9 10 9 9 9 8 8 8 8 8 8 9 9 10 10 9
-3 -1 1 2 2 3 4 6 8 9 10 10 12 12 12 12 12 12 12 12 11 11 11 10 10 10 10 9 9 9 9 8 8 8 8 8 8 8 9 9 9 9 9
-5 -3 -2 -0 1 3 3 4 6 8 9 9 10 11 12 12 12 11 12 11 12 12 12 11 11 11 11 10 9 9 9 8 8 8 8 8 8 8 8 8 8 9 9
-6 -5 -3 -2 -0 1 3 4 5 6 7 8 9 10 11 11 11 11 11 11 11 11 11 11 11 11 11 10 10 9 9 9 9 8 8 8 8 7 7 7 7 8 8
-7 -6 -5 -3 -2 -1 1 3 4 6 6 7 8 9 10 10 11 11 10 10 10 10 10 10 10 10 10 11 10 9 9 9 9 9 9 8 8 7 7 7 7 7 7
-8 -7 -7 -5 -4 -2 -0 2 4 5 6 7 7 8 8 9 10 10 10 10 9 9 9 9 10 10 9 10 10 9 9 9 9 9 9 9 8 8 7 7 7 7 7
-9 -8 -8 -6 -5 -3 -2 -0 2 3 5 6 7 8 9 9 9 9 10 9 9 9 9 9 9 9 10 10 10 9 9 9 9 10 9 9 9 8 7 7 6 7 7
-9 -9 -8 -7 -7 -5 -4 -2 -1 1 3 5 6 7 8 8 9 10 9 9 8 8 8 9 9 9 9 9 9 9 9 9 9 8 9 8 8 8 8 7 7 7 7
-10 -10 -9 -8 -7 -7 -5 -4 -3 -1 1 3 4 5 7 7 7 7 8 9 7 8 8 8 8 9 9 9 9 8 7 7 7 7 8 7 7 8 8 8 7 7 7
-11 -11 -10 -9 -8 -7 -6 -5 -4 -3 -1 0 2 5 6 7 6 7 7 7 6 7 7 8 8 8 7 7 7 7 7 6 6 6 6 6 6 7 7 7 7 7 7
-12 -11 -11 -10 -9 -8 -7 -6 -5 -4 -3 -1 -0 2 3 5 6 6 7 6 6 6 6 7 7 7 7 7 7 7 6 6 6 5 5 5 5 5 6 6 6 7 6
-12 -12 -11 -11 -10 -9 -8 -7 -6 -5 -4 -3 -2 -1 1 2 4 5 7 6 6 6 5 6 6 7 6 6 6 6 6 6 6 5 5 5 5 5 6 6 6 6 6
-13 -12 -12 -11 -10 -9 -8 -8 -7 -6 -5 -4 -3 -2 -1 0 1 3 6 6 6 6 6 6 6 6 6 6 5 5 5 5 5 5 5 5 5 5 6 5 6 6 6
-13 -12 -12 -11 -10 -9 -9 -8 -7 -7 -6 -6 -5 -4 -3 -2 -1 2 4 4 5 5 6 6 6 6 6 6 5 5 6 5 5 5 5 5 5 5 5 5 5 5 6
-13 -13 -12 -11 -11 -10 -9 -9 -8 -7 -7 -7 -6 -5 -4 -3 -2 -1 1 1 3 4 5 5 5 5 6 5 5 5 5 6 5 5 5 5 5 5 5 5 5 6 6
-13 -13 -12 -12 -11 -11 -10 -9 -9 -8 -8 -7 -7 -6 -5 -4 -4 -2 -1 -0 1 1 3 3 3 4 4 4 5 5 5 5 5 5 5 5 5 5 5 5 5 5 5
-14 -13 -12 -12 -12 -11 -10 -10 -10 -9 -8 -8 -7 -7 -6 -6 -5 -4 -2 -1 -1 0 1 1 2 2 3 3 3 3 4 4 4 4 4 4 5 5 5 5 5 5 5
-14 -13 -13 -12 -12 -11 -11 -11 -11 -10 -9 -8 -8 -8 -7 -7 -6 -5 -4 -3 -3 -2 -1 -0 0 1 1 2 2 3 3 3 3 3 3 4 4 4 4 4 4 4 4
-15 -14 -13 -13 -12 -12 -11 -11 -11 -10 -10 -9 -8 -8 -8 -8 -7 -6 -6 -5 -4 -4 -4 -3 -2 -1 -0 1 1 2 2 3 3 3 4 4 4 4 3 3 3 3 3
-15 -14 -14 -13 -13 -12 -12 -11 -11 -11 -10 -10 -10 -9 -9 -8 -8 -8 -7 -7 -6 -6 -6 -5 -3 -2 -2 -1 0 1 1 1 2 2 2 3 3 3 4 4 3 3 2
-15 -14 -14 -14 -13 -13 -12 -12 -11 -11 -11 -10 -10 -10 -9 -8 -8 -8 -8 -8 -7 -7 -6 -6 -5 -4 -4 -2 -1 -1 -1 -1 1 1 2 1 1 1 1 1 0 1 1
Height
1450 1450 1453 1459 1463 1466 1471 1475 1479 1483 1488 1491 1495 1499 1502 1507 1511 1516 1520 1524 1528 1531 1535 1539 1542 1546 1549 1552 1556 1560 1564 1568 1571 1574 1577 1580 1581 1583 1585 1587 1589 1589 1592
1442 1442 1445 1450 1454 1460 1464 1469 1474 1478 1483 1487 1491 1495 1500 1503 1508 1512 1517 1521 1525 1529 1533 1536 1539 1543 1546 1550 1553 1558 1561 1566 1569 1572 1575 1579 1581 1582 1583 1585 1587 1590 1590
1440 1439 1440 1442 1447 1451 1457 1463 1469 1474 1478 1482 1486 1491 1496 1499 1502 1507 1510 1515 1520 1525 1529 1533 1537 1540 1544 1547 1551 1554 1558 1562 1566 1569 1573 1576 1576 1579 1580 1581 1584 1586 1589
1439 1438 1438 1439 1441 1445 1451 1456 1462 1468 1473 1477 1481 1485 1489 1492 1497 1501 1506 1510 1516 1520 1525 1530 1533 1537 1541 1544 1547 1551 1555 1560 1563 1567 1569 1571 1572 1575 1577 1580 1582 1584 1586
1440 1438 1437 1437 1438 1441 1445 1450 1456 1462 1467 1471 1476 1481 1485 1490 1494 1498 1503 1506 1512 1516 1520 1525 1529 1533 1537 1540 1544 1547 1551 1555 1559 1562 1565 1568 1570 1571 1573 1574 1577 1581 1583
1442 1440 1439 1438 1438 1439 1441 1445 1450 1457 1462 1467 1472 1476 1481 1485 1489 1493 1498 1502 1507 1511 1515 1519 1524 1528 1531 1536 1540 1543 1547 1550 1554 1557 1560 1562 1565 1568 1571 1572 1574 1576 1578
1442 1440 1438 1438 1438 1438 1439 1441 1445 1451 1457 1462 1467 1472 1477 1481 1485 1489 1493 1497 1501 1505 1509 1514 1519 1523 1527 1530 1535 1538 1542 1545 1549 1552 1555 1558 1561 1565 1568 1570 1572 1573 1574
1445 1442 1440 1439 1439 1439 1439 1440 1442 1446 1451 1455 1461 1467 1472 1477 1480 1485 1489 1493 1497 1501 1505 1509 1513 1518 1522 1526 1528 1533 1536 1540 1544 1546 1550 1553 1556 1559 1563 1566 1568 1570 1571
1447 1445 1442 1441 1440 1440 1440 1440 1441 1443 1447 1451 1455 1460 1466 1471 1475 1480 1484 1488 1492 1496 1500 1505 1508 1511 1516 1520 1523 1526 1530 1533 1537 1539 1543 1546 1550 1554 1557 1560 1563 1566 1567
1449 1447 1444 1442 1441 1440 1440 1439 1439 1441 1444 1447 1450 1454 1459 1465 1469 1474 1478 1482 1487 1490 1494 1498 1502 1505 1510 1514 1517 1520 1523 1526 1529 1532 1535 1539 1542 1547 1550 1553 1556 1559 1561
1453 1450 1447 1445 1442 1441 1439 1438 1438 1439 1441 1444 1447 1450 1454 1459 1463 1468 1473 1478 1482 1484 1488 1492 1496 1500 1504 1507 1510 1512 1516 1518 1521 1524 1528 1531 1535 1539 1544 1547 1550 1552 1555
1458 1454 1450 1446 1443 1441 1439 1438 1437 1437 1438 1440 1443 1446 1450 1453 1458 1464 1468 1472 1475 1478 1482 1485 1489 1494 1497 1500 1503 1505 1507 1509 1513 1516 1519 1524 1528 1532 1536 1540 1543 1545 1548
1461 1456 1452 1448 1446 1443 1440 1438 1438 1437 1437 1438 1441 1442 1443 1449 1453 1458 1463 1466 1469 1472 1475 1478 1481 1485 1489 1492 1494 1497 1499 1501 1502 1505 1511 1516 1519 1525 1528 1533 1536 1538 1541
1466 1461 1456 1453 1450 1446 1443 1441 1439 1438 1437 1436 1439 1438 1442 1445 1448 1453 1456 1459 1462 1465 1468 1471 1474 1478 1481 1484 1485 1488 1490 1492 1494 1497 1504 1508 1513 1517 1521 1526 1530 1531 1532
1470 1466 1461 1458 1454 1450 1446 1443 1441 1438 1437 1437 1436 1434 1438 1442 1447 1450 1452 1454 1458 1461 1464 1466 1468 1471 1473 1475 1478 1480 1483 1485 1489 1493 1497 1501 1505 1510 1516 1519 1523 1525 1526
1477 1471 1466 1462 1458 1454 1450 1447 1444 1442 1440 1437 1436 1436 1437 1441 1443 1447 1448 1452 1455 1457 1459 1462 1464 1466 1468 1470 1472 1475 1477 1480 1483 1486 1491 1494 1499 1504 1508 1512 1515 1518 1520
1482 1476 1471 1467 1463 1459 1455 1450 1448 1446 1443 1442 1440 1439 1438 1440 1439 1442 1444 1448 1452 1456 1457 1459 1461 1462 1464 1467 1469 1471 1473 1476 1478 1481 1484 1488 1493 1499 1503 1507 1509 1511 1513
1486 1481 1475 1471 1467 1463 1458 1455 1452 1449 1447 1445 1443 1441 1440 1438 1440 1442 1440 1446 1449 1453 1455 1456 1457 1459 1460 1463 1466 1469 1472 1474 1476 1478 1481 1484 1489 1494 1498 1500 1503 1506 1507
1490 1486 1480 1475 1470 1465 1461 1458 1455 1453 1450 1448 1447 1444 1443 1442 1442 1440 1440 1442 1444 1447 1451 1452 1455 1456 1458 1461 1464 1467 1469 1471 1473 1476 1478 1481 1485 1488 1491 1493 1497 1499 1501
1493 1488 1483 1478 1473 1469 1466 1461 1458 1455 1453 1452 1450 1449 1447 1444 1442 1442 1441 1441 1443 1445 1447 1449 1452 1453 1457 1459 1462 1464 1466 1468 1470 1472 1474 1477 1479 1483 1486 1489 1490 1492 1494
1494 1489 1484 1480 1476 1473 1469 1465 1462 1458 1459 1457 1455 1453 1450 1448 1447 1445 1443 1443 1443 1446 1446 1448 1451 1453 1455 1458 1460 1462 1464 1466 1466 1469 1471 1473 1475 1477 1480 1482 1483 1486 1488
1494 1490 1486 1482 1480 1477 1473 1471 1468 1465 1463 1461 1458 1455 1453 1453 1450 1446 1445 1446 1446 1446 1448 1448 1449 1453 1453 1456 1458 1460 1462 1463 1465 1467 1468 1469 1472 1474 1476 1478 1480 1481 1483
1497 1493 1489 1486 1484 1480 1477 1474 1472 1469 1467 1465 1462 1460 1458 1455 1451 1450 1447 1446 1447 1448 1448 1449 1451 1452 1454 1455 1458 1458 1461 1463 1464 1464 1465 1466 1469 1471 1473 1475 1476 1478 1478
1498 1494 1491 1489 1486 1483 1481 1479 1477 1473 1471 1469 1465 1463 1460 1457 1455 1454 1452 1451 1451 1451 1451 1451 1451 1453 1454 1456 1456 1458 1461 1461 1462 1463 1464 1466 1467 1469 1470 1472 1473 1474 1474
1500 1496 1493 1492 1490 1488 1485 1483 1481 1478 1475 1472 1469 1466 1465 1462 1459 1457 1456 1456 1456 1456 1454 1453 1452 1452 1453 1454 1454 1456 1458 1459 1461 1462 1463 1464 1465 1466 1468 1469 1470 1472 1472
1502 1499 1497 1496 1493 1491 1488 1486 1484 1481 1478 1475 1472 1468 1467 1465 1464 1462 1461 1459 1459 1458 1455 1454 1454 1454 1453 1453 1453 1454 1456 1456 1457 1459 1461 1461 1462 1463 1464 1466 1468 1469 1469
Wind_Speed
26 26 32 34 30 34 35 32 30 31 34 34 34 33 33 35 29 28 26 26 21 21 22 19 19 20 22 27 29 27 25 23 25 21 19 15 14 15 20 17 15 23 22
4 15 22 27 32 32 37 35 33 32 32 33 35 35 30 30 26 29 29 28 26 23 23 23 21 19 24 29 29 28 28 26 26 26 21 15 15 18 21 18 19 19 17
1 3 8 17 24 31 34 36 35 33 34 34 34 34 31 30 30 33 35 32 29 24 26 24 24 20 23 30 31 29 28 27 26 26 18 12 12 20 22 20 27 23 24
2 2 3 8 16 22 29 36 36 35 34 35 33 34 32 34 34 31 29 32 30 28 29 25 25 23 22 29 31 31 29 27 27 26 26 17 12 14 15 26 25 23 24
8 4 2 1 6 15 22 29 34 35 34 35 34 32 31 28 28 28 27 28 29 30 30 29 27 26 25 27 31 32 31 30 29 31 29 28 20 13 14 22 30 30 27
10 7 6 4 0 5 12 21 29 30 34 33 32 33 31 31 31 30 29 29 32 32 31 29 29 29 28 27 28 31 30 32 31 31 30 35 32 27 20 19 18 31 31
15 14 10 5 5 3 5 13 21 23 27 32 33 31 27 27 28 29 27 29 29 32 32 32 31 32 30 27 29 29 30 32 33 32 33 33 35 33 25 21 17 18 25
18 17 16 12 9 4 1 6 15 23 25 28 32 33 29 26 24 28 29 30 30 29 26 27 28 29 30 30 30 30 32 33 35 36 35 34 34 36 34 31 25 22 19
20 19 16 14 11 7 4 3 10 19 23 26 29 31 33 31 26 25 28 28 29 30 28 28 31 32 29 31 30 30 31 32 34 36 36 36 35 34 34 33 32 28 24
22 22 20 17 13 10 6 3 2 12 20 24 27 28 30 32 30 29 28 28 27 28 27 26 28 33 33 32 36 35 34 34 35 35 36 36 36 35 36 35 33 32 31
24 24 22 19 17 13 9 6 2 4 12 20 22 24 25 26 25 24 25 25 25 25 26 26 26 29 32 34 38 38 38 39 39 37 36 34 36 35 35 35 33 33 32
24 25 23 21 20 18 15 12 6 3 3 13 18 21 21 22 20 23 24 28 27 28 29 28 30 31 33 34 37 39 42 43 42 40 38 36 35 36 34 34 34 33 33
26 29 27 26 24 21 18 15 11 7 3 6 18 16 18 20 23 26 25 26 29 30 31 30 31 32 32 33 34 37 42 39 45 45 39 36 35 32 31 32 32 31 31
26 26 30 29 26 23 21 17 15 11 5 5 8 13 16 18 17 22 26 25 25 29 29 28 29 30 33 32 34 33 35 38 38 37 36 35 32 29 27 29 30 29 30
27 28 30 29 28 26 23 19 16 15 11 5 2 9 14 19 21 21 22 19 18 17 18 19 20 23 20 20 22 24 27 32 30 29 29 32 33 26 24 25 26 26 26
26 28 28 28 28 27 25 22 19 16 14 11 8 4 8 14 15 19 18 16 12 12 15 15 14 13 14 14 14 16 18 20 24 26 27 26 24 24 22 23 22 23 24
28 27 27 27 26 25 24 23 21 17 15 14 13 10 8 7 14 17 18 15 13 10 11 11 9 11 12 11 12 13 14 16 20 22 25 24 23 23 24 24 24 26 26
25 24 25 26 25 23 23 21 19 18 17 16 14 13 14 12 8 12 17 19 17 16 12 10 7 11 9 10 10 8 9 12 13 14 16 20 24 21 23 22 24 26 27
21 20 21 23 24 24 23 22 20 19 18 20 17 15 14 14 12 12 13 14 17 17 15 11 11 9 8 12 12 11 11 12 15 16 18 19 23 23 22 21 26 26 29
19 20 21 23 24 24 23 22 23 21 22 22 19 15 14 13 14 13 13 15 15 17 15 14 14 13 11 11 11 9 9 10 8 14 20 21 24 29 34 33 36 31 21
20 19 20 23 25 23 24 25 23 25 22 20 18 15 15 13 12 11 12 12 15 14 18 17 15 14 14 12 9 7 7 8 10 11 11 11 11 13 17 21 20 20 21
21 20 21 22 23 23 23 24 25 22 20 19 19 19 17 14 13 12 10 10 10 12 12 13 13 11 9 8 7 7 6 6 6 6 6 8 9 11 13 14 15 17 18
21 19 20 21 22 23 23 22 23 22 20 19 19 20 19 18 15 13 14 12 11 9 9 7 8 8 8 7 5 4 4 7 8 6 6 6 7 9 10 12 13 16 17
21 20 19 21 22 22 21 20 20 21 19 20 19 20 21 20 19 16 15 13 13 12 10 8 7 5 4 3 3 5 6 7 6 6 7 8 8 9 9 9 9 10 11
18 18 18 19 20 20 20 18 19 19 19 19 19 20 19 19 18 18 18 16 13 12 10 9 6 4 1 1 4 5 7 8 8 7 8 9 9 9 10 10 11 11 10
17 16 15 16 17 18 19 17 18 18 20 20 20 20 18 17 17 15 12 12 11 11 12 11 9 6 3 5 6 8 7 6 8 9 11 10 8 8 8 9 10 10 9
Wind_Direction
250 248 233 229 227 222 220 218 220 219 218 218 218 222 225 220 213 216 219 221 216 216 205 198 199 205 206 201 198 197 200 194 193 192 198 211 222 217 210 213 218 204 196
226 227 230 223 221 222 219 219 219 221 218 221 222 225 225 224 221 219 223 221 219 215 217 205 203 206 204 202 204 207 202 203 205 208 208 216 218 216 213 217 214 218 216
134 129 186 201 208 211 215 221 220 220 219 221 221 224 224 219 218 220 221 223 218 219 220 215 212 211 212 209 209 211 214 207 205 212 208 202 219 215 219 220 219 219 222
67 105 129 175 194 202 208 216 222 221 222 223 223 223 218 217 220 225 233 220 216 220 221 221 220 218 221 217 218 217 221 220 211 210 214 210 206 202 217 220 233 224 227
32 43 40 123 186 202 207 209 216 221 221 223 222 220 220 226 232 228 225 226 222 224 225 224 222 223 225 224 223 222 222 224 224 221 217 221 225 221 219 222 221 227 234
39 47 41 36 308 213 204 205 209 215 220 222 223 226 229 232 233 230 225 222 226 222 229 226 225 226 227 229 228 228 231 230 232 236 238 233 234 235 237 240 242 231 229
39 41 43 32 27 3 219 200 201 202 215 223 226 228 231 233 237 230 232 226 227 226 226 226 227 228 231 232 233 235 234 234 237 241 242 244 243 246 246 248 255 261 248
31 36 39 39 36 33 7 201 196 199 207 216 223 224 227 231 231 229 232 234 239 235 235 232 234 231 237 239 237 235 240 244 244 247 246 247 246 245 246 252 257 258 259
26 29 36 40 39 40 33 187 203 206 210 211 217 222 221 225 230 233 233 236 239 237 242 239 241 231 231 239 241 240 242 241 243 247 247 249 249 250 251 253 256 254 261
27 30 34 39 42 41 39 61 130 209 214 215 215 220 222 222 227 230 233 237 240 239 238 240 242 240 235 238 243 242 246 245 244 245 246 248 249 248 249 252 255 255 256
26 29 33 38 42 45 43 49 144 167 205 217 222 221 224 223 226 233 234 233 236 236 238 239 239 241 248 249 248 248 250 251 252 248 246 247 249 248 247 250 252 253 253
28 32 34 36 39 42 43 44 53 177 169 208 216 213 212 214 215 229 233 231 234 236 243 245 244 244 246 245 247 249 249 246 250 250 250 248 246 248 247 248 250 253 255
24 30 32 32 32 36 38 40 43 55 125 166 201 187 195 206 220 226 233 236 239 240 243 247 245 245 246 251 250 253 257 259 248 248 249 250 244 246 247 248 247 249 253
22 23 29 29 27 29 33 36 40 45 68 142 187 170 192 214 233 239 230 231 236 240 243 240 245 248 245 249 255 254 255 257 251 251 249 248 244 245 250 249 251 251 249
18 20 23 26 26 25 29 33 38 40 47 61 146 158 187 210 214 226 225 228 231 227 223 226 228 236 237 243 249 254 256 252 251 257 256 252 241 236 247 251 253 255 254
13 19 24 25 27 25 25 27 32 38 43 51 63 127 177 187 196 212 201 194 190 200 209 216 224 226 236 237 239 242 243 248 249 252 254 247 236 237 249 255 255 253 252
15 19 25 25 26 27 28 28 26 31 42 50 58 79 105 150 166 192 192 193 205 217 216 208 217 235 237 233 235 239 242 246 248 250 248 233 228 232 238 244 248 247 244
16 19 25 26 26 29 36 35 32 32 37 41 52 56 69 94 116 162 181 194 188 204 199 204 211 202 212 217 220 228 235 236 237 237 236 229 224 237 242 246 249 252 252
15 18 27 30 30 30 35 39 39 37 38 38 37 46 49 69 86 126 147 157 169 186 197 194 195 189 199 209 211 230 240 247 245 238 235 230 235 238 256 265 254 255 259
15 17 27 32 34 33 34 38 41 40 38 33 30 30 41 52 68 82 111 125 138 151 160 175 187 171 197 174 186 191 203 208 215 235 238 242 243 248 251 261 262 264 256
14 20 29 30 29 32 36 38 39 41 37 34 31 34 38 46 56 74 89 96 113 125 138 141 144 143 156 154 181 177 207 211 213 215 206 214 228 231 232 244 240 239 249
17 25 27 28 27 27 35 37 37 39 34 35 36 37 35 36 48 62 82 86 92 105 109 115 121 127 128 129 146 157 181 190 202 214 223 227 233 243 248 251 251 249 252
13 21 25 28 28 27 27 31 31 34 34 36 39 40 37 33 39 49 59 65 69 82 96 115 108 114 114 131 159 193 226 233 223 214 219 223 229 243 251 250 258 257 255
11 16 21 25 26 26 24 25 27 29 32 34 34 36 35 34 38 41 45 47 48 50 56 71 90 109 122 135 165 201 221 224 230 229 225 232 231 240 244 247 248 253 253
10 15 19 20 21 23 25 26 22 22 28 31 33 35 29 34 39 37 36 35 34 26 24 27 35 37 31 215 214 219 223 226 233 237 237 239 239 241 247 249 252 253 254
6 14 18 19 18 16 19 26 25 22 22 21 27 30 27 31 30 40 51 43 35 24 16 6 353 341 308 262 239 235 236 243 244 241 241 235 236 238 248 260 265 257 249